Retour au catalogue

STARLINK-4705

ActifCommunicationsVLEO
NORAD 53723·PAYLOAD·🇺🇸 United States

Lancé Sep 5, 2022 depuis Cape Canaveral Space Force Station

Loading…

Prochains Passages (prochaines 24 heures)

TLE

FraisSource: CelesTrak SupGP

Époque: Sep 14, 2026, 21:39 UTC

1 53723C 22107Z   26257.90256944 -.00004879  00000+0 -13961-3 0  2572
2 53723  53.1571 111.8700 0001333  84.0555 233.2861 15.35396227    18

Suivez STARLINK-4705 en temps réel avec AllMySat

Download on the App Store